Weather History for Mount Sterling, KY

Change the Weather History Date:

Wednesday, December 24, 2014

  Actual Average Record
Temperature  
Mean Temperature 50 °F -  
Max Temperature 60 °F 46 °F 60 °F (2014)
Min Temperature 39 °F 27 °F 15 °F (2013)
Degree Days  
Heating Degree Days 14    
Moisture  
Dew Point 48 °F    
Average Humidity 90    
Maximum Humidity 100    
Minimum Humidity 81    
Precipitation  
Precipitation 0.11 in - - ()
Sea Level Pressure  
Sea Level Pressure 29.61 in    
Wind  
Wind Speed 10 mph (SW)    
Max Wind Speed 26 mph    
Max Gust Speed 41 mph    
Visibility 10 miles    
Events Rain    
Averages and records for this station are not official NWS values.
T = Trace of Precipitation, MM = Missing Value Source: NWS Daily Summary

Daily Weather History Graph

Daily Weather History Graph

Search for Another Location

Airport:

Trip Planner

Search our weather history database for the weather conditions in past years. The results will help you decide how hot, cold, wet, or windy it might be!

Date:

Astronomy

Dec. 24, 2014 Rise Set
Actual Time 7:49 AM EST 5:21 PM EST
Civil Twilight 7:20 AM EST 5:50 PM EST
Nautical Twilight 6:47 AM EST 6:24 PM EST
Astronomical Twilight 6:15 AM EST 6:56 PM EST
Moon 9:42 AM EST (12/24) 8:41 PM EST (12/24)
Length of Visible Light 10h 30m
Length of Day
9h 31m
Waxing Crescent, 9% of the Moon is Illuminated
Dec 24
Waxing Crescent
Dec 28
First Quarter
Jan 4
Full
Jan 13
Last Quarter
Jan 20
New

Hourly Weather History & Observations

Time (EST) Temp. Windchill Dew Point Humidity Pressure Visibility Wind Dir Wind Speed Gust Speed Precip Events Conditions
12:15 AM 55.4 °F - 53.6 °F 94% 29.72 in 10.0 mi SSW 11.5 mph 18.4 mph N/A   Clear
12:35 AM 55.4 °F - 53.6 °F 94% 29.73 in 10.0 mi SSW 9.2 mph - N/A   Mostly Cloudy
12:55 AM 55.4 °F - 53.6 °F 94% 29.72 in 10.0 mi SSW 11.5 mph - 0.01 in Rain Light Rain
1:15 AM 55.4 °F - 53.6 °F 94% 29.71 in 10.0 mi SSW 10.4 mph - N/A Rain Light Rain
1:35 AM 53.6 °F - 53.6 °F 100% 29.68 in 10.0 mi South 11.5 mph - N/A   Scattered Clouds
1:55 AM 55.4 °F - 53.6 °F 94% 29.64 in 10.0 mi South 15.0 mph - N/A   Mostly Cloudy
2:15 AM 55.4 °F - 53.6 °F 94% 29.63 in 10.0 mi South 11.5 mph - N/A   Mostly Cloudy
2:35 AM 53.6 °F - 51.8 °F 94% 29.61 in 10.0 mi SSE 11.5 mph 17.3 mph N/A   Scattered Clouds
2:55 AM 55.4 °F - 51.8 °F 88% 29.64 in 10.0 mi SSW 5.8 mph - N/A   Mostly Cloudy
3:15 AM 53.6 °F - 51.8 °F 94% 29.65 in 10.0 mi Calm Calm - N/A   Overcast
3:35 AM 53.6 °F - 51.8 °F 94% 29.68 in 10.0 mi WNW 8.1 mph - N/A   Overcast
3:55 AM 53.6 °F - 51.8 °F 94% 29.66 in 10.0 mi South 6.9 mph - N/A   Overcast
4:15 AM 53.6 °F - 51.8 °F 94% 29.61 in 10.0 mi SE 6.9 mph - N/A   Mostly Cloudy
4:35 AM 53.6 °F - 51.8 °F 94% 29.59 in 10.0 mi SSE 4.6 mph - N/A   Scattered Clouds
4:55 AM 53.6 °F - 51.8 °F 94% 29.61 in 10.0 mi Calm Calm - N/A   Clear
5:15 AM 51.8 °F - 51.8 °F 100% 29.62 in 10.0 mi Calm Calm - N/A   Scattered Clouds
5:35 AM 51.8 °F - 51.8 °F 100% 29.61 in 10.0 mi South 5.8 mph - N/A   Clear
5:55 AM 51.8 °F - 51.8 °F 100% 29.57 in 10.0 mi SE 5.8 mph - N/A   Clear
6:15 AM 53.6 °F - 51.8 °F 94% 29.59 in 10.0 mi SSW 5.8 mph - N/A   Clear
6:35 AM 53.6 °F - 51.8 °F 94% 29.59 in 10.0 mi SSW 5.8 mph - N/A   Scattered Clouds
6:55 AM 53.6 °F - 51.8 °F 94% 29.59 in 10.0 mi SSW 5.8 mph - N/A   Scattered Clouds
7:15 AM 53.6 °F - 51.8 °F 94% 29.59 in 10.0 mi SSW 5.8 mph - N/A   Overcast
7:35 AM 53.6 °F - 51.8 °F 94% 29.59 in 10.0 mi South 5.8 mph - N/A   Overcast
7:55 AM 53.6 °F - 51.8 °F 94% 29.57 in 10.0 mi SSE 4.6 mph - N/A   Overcast
8:15 AM 53.6 °F - 51.8 °F 94% 29.59 in 10.0 mi SW 3.5 mph - N/A   Overcast
8:35 AM 53.6 °F - 51.8 °F 94% 29.59 in 10.0 mi SSW 5.8 mph - N/A   Overcast
8:55 AM 53.6 °F - 53.6 °F 100% 29.58 in 10.0 mi SSW 8.1 mph - N/A   Overcast
9:15 AM 55.4 °F - 51.8 °F 88% 29.57 in 10.0 mi South 9.2 mph - N/A   Mostly Cloudy
9:35 AM 55.4 °F - 53.6 °F 94% 29.58 in 10.0 mi SSW 8.1 mph - N/A   Scattered Clouds
9:55 AM 55.4 °F - 53.6 °F 94% 29.58 in 10.0 mi SW 6.9 mph - N/A   Mostly Cloudy
10:15 AM 55.4 °F - 53.6 °F 94% 29.57 in 10.0 mi SW 5.8 mph - N/A   Overcast
10:35 AM 55.4 °F - 53.6 °F 94% 29.56 in 10.0 mi SSW 8.1 mph - N/A   Overcast
10:55 AM 57.2 °F - 53.6 °F 88% 29.55 in 10.0 mi SW 8.1 mph - N/A   Overcast
11:15 AM 59.0 °F - 53.6 °F 82% 29.54 in 10.0 mi SW 8.1 mph - N/A   Overcast
11:35 AM 59.0 °F - 53.6 °F 82% 29.53 in 10.0 mi SW 9.2 mph - N/A   Overcast
11:55 AM 59.0 °F - 55.4 °F 88% 29.51 in 10.0 mi SW 10.4 mph - N/A   Overcast
12:15 PM 59.0 °F - 55.4 °F 88% 29.50 in 10.0 mi SSW 11.5 mph 17.3 mph N/A   Overcast
12:35 PM 60.8 °F - 55.4 °F 82% 29.48 in 10.0 mi SSW 11.5 mph 17.3 mph N/A   Mostly Cloudy
12:55 PM 60.8 °F - 55.4 °F 82% 29.46 in 10.0 mi SSW 15.0 mph 19.6 mph N/A   Mostly Cloudy
1:15 PM 60.8 °F - 55.4 °F 82% 29.46 in 10.0 mi SSW 13.8 mph 19.6 mph N/A   Overcast
1:35 PM 60.8 °F - 55.4 °F 82% 29.44 in 10.0 mi SSW 15.0 mph - N/A   Overcast
1:55 PM 60.8 °F - 55.4 °F 82% 29.42 in 10.0 mi SSW 13.8 mph 21.9 mph N/A   Overcast
2:15 PM 60.8 °F - 55.4 °F 82% 29.41 in 10.0 mi SW 13.8 mph 23.0 mph N/A   Overcast
2:35 PM 60.8 °F - 55.4 °F 82% 29.42 in 10.0 mi SW 13.8 mph 23.0 mph N/A   Overcast
2:55 PM 60.8 °F - 55.4 °F 82% 29.41 in 10.0 mi SW 11.5 mph 18.4 mph N/A   Overcast
3:15 PM 53.6 °F - 50.0 °F 88% 29.46 in 2.5 mi West 17.3 mph 41.4 mph 0.06 in Rain Heavy Rain
3:35 PM 50.0 °F - 46.4 °F 87% 29.49 in 10.0 mi West 25.3 mph 38.0 mph 0.07 in Rain Light Rain
3:55 PM 46.4 °F 37.7 °F 44.6 °F 93% 29.52 in 10.0 mi West 26.5 mph 34.5 mph 0.07 in   Overcast
4:15 PM 46.4 °F 39.0 °F 44.6 °F 93% 29.53 in 10.0 mi West 19.6 mph 35.7 mph N/A   Overcast
4:35 PM 46.4 °F 40.4 °F 44.6 °F 93% 29.55 in 10.0 mi West 13.8 mph 25.3 mph 0.01 in Rain Light Rain
4:55 PM 44.6 °F 37.2 °F 42.8 °F 93% 29.56 in 10.0 mi West 17.3 mph 25.3 mph 0.02 in   Overcast
5:15 PM 42.8 °F 34.5 °F 42.8 °F 100% 29.56 in 10.0 mi WNW 18.4 mph 26.5 mph N/A Rain Light Rain
5:35 PM 42.8 °F 35.4 °F 41.0 °F 93% 29.61 in 10.0 mi WNW 15.0 mph 24.2 mph 0.01 in   Overcast
5:55 PM 42.8 °F 35.4 °F 41.0 °F 93% 29.64 in 10.0 mi West 15.0 mph 23.0 mph 0.01 in Rain Light Rain
6:15 PM 42.8 °F 35.1 °F 41.0 °F 93% 29.64 in 10.0 mi West 16.1 mph 24.2 mph N/A   Overcast
6:35 PM 42.8 °F 37.0 °F 39.2 °F 87% 29.67 in 10.0 mi WNW 10.4 mph 23.0 mph N/A   Overcast
6:55 PM 42.8 °F 36.6 °F 39.2 °F 87% 29.68 in 10.0 mi WNW 11.5 mph 21.9 mph N/A   Overcast
7:15 PM 42.8 °F 35.8 °F 37.4 °F 81% 29.70 in 10.0 mi WNW 13.8 mph 19.6 mph N/A   Overcast
7:35 PM 42.8 °F 36.6 °F 37.4 °F 81% 29.71 in 10.0 mi WNW 11.5 mph 18.4 mph N/A   Overcast
7:55 PM 41.0 °F 33.9 °F 37.4 °F 87% 29.72 in 10.0 mi WNW 12.7 mph 26.5 mph N/A   Overcast
8:15 PM 41.0 °F 33.9 °F 37.4 °F 87% 29.73 in 10.0 mi West 12.7 mph 24.2 mph N/A   Overcast
8:35 PM 41.0 °F 34.3 °F 37.4 °F 87% 29.73 in 10.0 mi West 11.5 mph 16.1 mph N/A   Overcast
8:55 PM 41.0 °F 33.5 °F 37.4 °F 87% 29.75 in 10.0 mi West 13.8 mph 23.0 mph N/A   Overcast
9:15 PM 41.0 °F 33.5 °F 37.4 °F 87% 29.76 in 10.0 mi West 13.8 mph 19.6 mph N/A Rain Light Rain
9:35 PM 41.0 °F 34.3 °F 37.4 °F 87% 29.76 in 10.0 mi West 11.5 mph 16.1 mph N/A   Overcast
9:55 PM 41.0 °F 34.3 °F 37.4 °F 87% 29.78 in 10.0 mi West 11.5 mph 16.1 mph N/A   Overcast
10:15 PM 41.0 °F 34.7 °F 37.4 °F 87% 29.79 in 10.0 mi West 10.4 mph 16.1 mph N/A   Overcast
10:35 PM 41.0 °F 33.1 °F 37.4 °F 87% 29.79 in 10.0 mi West 15.0 mph 20.7 mph N/A   Overcast
10:55 PM 41.0 °F 32.8 °F 35.6 °F 81% 29.80 in 10.0 mi West 16.1 mph 20.7 mph N/A   Overcast
11:15 PM 41.0 °F 33.1 °F 35.6 °F 81% 29.80 in 10.0 mi West 15.0 mph 20.7 mph N/A   Light Drizzle
11:35 PM 41.0 °F 33.9 °F 35.6 °F 81% 29.80 in 10.0 mi West 12.7 mph 20.7 mph N/A   Overcast
11:55 PM 39.2 °F 33.0 °F 37.4 °F 93% 29.80 in 10.0 mi WNW 9.2 mph - N/A   Overcast